CZ-4C DEB, 42670

Orbit data source: Space-Track

CZ-4C DEB, 42670 is space debris in SSO originally from a launch on Thu, 26 Nov 2015 UTC launched from the Taiyaun Space Center, China (TSC). Debris objects in space refer to the collection of defunct objects orbiting the Earth. Examples of debris include non-operational satellites, rocket bodies, and fragments generated from explosions, collisions, or faulty payload assembly.

Loading next visibility...
Identifier
42670, 2015-069C
Orbit
SSO
Country
Flag of CNCN / PRC
Related business
Manufacturer
Unknown
Mission
Spacecraft
Bus & Motor
Unknown
Mass
Unknown
Launch date (UTC)
2015-11-26 (10 years ago)
Launch vehicle
Unknown
Launch site
Taiyaun Space Center, China (TSC)
Object type
Payload
Rocket body
Debris
Shape & HBR
Unknown shape, 0.1 m
Radar Cross Section
Small (<0.1 m²)

Expand to show TLE details & history
Last TLE update: 2 days ago

TLE from 2 days ago
0 CZ-4C DEB
1 42670U 15069C   26122.47120829  .00008369  00000-0  25988-3 0  9997
2 42670  97.4784 192.4602 0055141 326.0190  33.7524 15.32122421526078
Epoch: 2026-05-02T11:18Z
TLE epoch observation values (Epoch: 2026-05-02T11:18:32.396Z)
Latitude
Longitude
162.43658°
Altitude
441.249 km
Speed
7.665 km/s
True Right ascension
12h 49m 50s
True Declination
0° 00' 00"
Sunlit
Object was in full shadow at epoch
Visualization orbit readout
Latitude
Unknown
Longitude
Unknown
Altitude
Unknown
Speed
Unknown
Apparent Right ascension
Unknown
Apparent Declination
Unknown
Sunlit
N/A
Visualization observer readout
Local Sidereal Time
00:40:55
Azimuth
Unknown
Elevation
Unknown
Doppler factor
Unknown
Orbital elements
Apogee altitude
504.175 km
Perigee altitude
428.692 km
Semi-major axis
6,844.571 km
Eccentricity
0.00551
Inclination
97.4784°
RAAN
192.4602°
Arg. of periapsis
326.019°
True anomaly
34.10549°
Mean anomaly
33.7524°
Eccentric anomaly
33.92874°
Mean motion
3.83287 °/min
Orbital period
93.92 mins
BSTAR
0.00025988
Loading maneuver chart data...
Computing Atmospheric mass density...
Loading historical data...
Loading historical data...
Loading historical data...
Loading historical data...
Loading historical data...
Loading historical data...
Loading historical data...
Other satellites on launch #69 in the year 2015 (2015-11-26 UTC)

Documentation

Showing up to 5 results
|